1485097200.98,8391,11.88,74192.8,-4.67,-39.85,-40.03,0,*66
1485097202.23,8392,11.88,74194.0,-4.67,-39.85,-39.97,0,*66
1485097203.45,8393,11.88,74194.8,-4.69,-39.85,-40.03,0,*6A
1485097204.69,8394,11.88,74192.0,-4.69,-39.97,-40.03,0,*6E
1485097205.97,8395,11.88,74192.5,-4.67,-39.97,-39.97,0,*62
1485097207.21,8396,11.88,74194.0,-4.69,-39.97,-40.03,0,*6C
1485097208.46,8397,11.88,74190.3,-4.69,-39.79,-40.03,0,*6D
1485097209.7,8398,11.88,74194.8,-4.69,-39.97,-40.03,0,*62
1485097210.94,8399,11.88,74194.0,-4.69,-39.97,-40.03,0,*63
1485097212.19,8400,11.88,74194.0,-4.69,-39.79,-40.03,0,*64
1485097213.44,8401,11.88,74196.0,-4.69,-39.85,-39.97,0,*65
1485097214.66,8402,11.88,74194.5,-4.69,-39.85,-40.03,0,*65
1485097215.9,8403,11.88,74198.3,-4.69,-39.97,-40.03,0,*67
1485097217.14,8404,11.88,74196.5,-4.69,-40.03,-40.21,0,*63
1485097218.42,8405,11.88,74194.8,-4.69,-40.09,-40.29,0,*60
1485097219.69,8406,11.88,74194.0,-4.69,-40.09,-40.21,0,*6B
1485097220.91,8407,11.88,74196.8,-4.69,-40.03,-40.03,0,*60
1485097222.15,8408,11.88,74194.5,-4.69,-40.03,-40.21,0,*6F
1485097223.4,8409,11.88,74196.5,-4.69,-40.03,-40.09,0,*64
1485097224.64,8410,11.88,74194.5,-4.69,-40.03,-40.21,0,*66
1485097225.87,8411,11.94,74198.0,-4.71,-40.09,-40.15,0,*63
1485097227.09,8412,11.88,74196.3,-4.71,-40.03,-40.09,0,*67
1485097228.33,8413,11.88,74196.3,-4.71,-40.09,-40.29,0,*6E
1485097229.53,8414,11.88,74194.8,-4.71,-40.15,-40.35,0,*69
1485097230.78,8415,11.88,74192.5,-4.71,-40.09,-40.29,0,*68
1485097231.98,8416,11.88,74192.8,-4.71,-40.15,-40.35,0,*6B
1485097233.19,8417,11.88,74196.5,-4.71,-40.29,-40.35,0,*65
1485097234.42,8418,11.88,74198.3,-4.71,-40.15,-40.29,0,*68
1485097235.68,8419,11.88,74192.3,-4.73,-40.15,-40.29,0,*6B
1485097236.96,8420,11.88,74198.0,-4.73,-40.09,-40.29,0,*6C
1485097238.19,8421,11.88,74196.8,-4.77,-40.15,-40.35,0,*69
1485097239.41,8422,11.88,74196.5,-4.73,-40.03,-40.15,0,*6B
1485097240.66,8423,11.88,74196.0,-4.73,-40.03,-40.29,0,*65
1485097241.94,8424,11.88,74194.3,-4.73,-40.09,-40.09,0,*6A
1485097243.19,8425,11.88,74194.0,-4.73,-40.03,-40.21,0,*6B
1485097244.45,8426,11.88,74196.0,-4.77,-40.15,-40.21,0,*6B
1485097245.69,8427,11.88,74196.5,-4.77,-40.21,-40.35,0,*68
1485097246.95,8428,11.88,74194.8,-4.77,-40.15,-40.21,0,*65
1485097248.21,8429,11.88,74194.8,-4.77,-40.15,-40.21,0,*64
1485097249.5,8430,11.88,74190.0,-4.77,-40.09,-40.09,0,*6B
1485097250.75,8431,11.94,74198.8,-4.73,-39.91,-40.09,0,*61
1485097252.04,8432,11.88,74194.3,-4.77,-40.09,-40.09,0,*69
1485097253.29,8433,11.88,74192.0,-4.77,-39.97,-40.15,0,*6C
1485097254.56,8434,11.88,74192.8,-4.77,-39.97,-40.09,0,*66
1485097255.84,8435,11.88,74192.0,-4.77,-39.97,-40.09,0,*67
1485097257.07,8436,11.88,74194.0,-4.77,-39.91,-40.15,0,*6F
1485097258.35,8437,11.94,74198.5,-4.77,-39.97,-40.09,0,*65
1485097259.61,8438,11.88,74192.5,-4.77,-39.91,-40.09,0,*6C
1485097260.89,8439,11.88,74194.3,-4.77,-39.97,-40.09,0,*6B
1485097262.14,8440,11.88,74192.8,-4.77,-39.97,-40.15,0,*68
1485097263.36,8441,11.88,74194.8,-4.73,-39.85,-40.03,0,*69
1485097264.61,8442,11.88,74194.0,-4.77,-39.97,-40.15,0,*6A
1485097265.9,8443,11.88,74194.8,-4.77,-40.09,-40.09,0,*6F
1485097267.12,8444,11.88,74194.5,-4.79,-40.03,-40.21,0,*66
1485097268.34,8445,11.88,74188.5,-4.79,-39.97,-40.15,0,*63
1485097269.6,8446,11.88,74194.5,-4.77,-39.91,-40.09,0,*65
1485097270.87,8447,11.88,74194.0,-4.77,-39.97,-40.09,0,*62
1485097272.1,8448,11.88,74194.5,-4.79,-39.97,-40.15,0,*6E
1485097273.32,8449,11.88,74192.3,-4.79,-39.97,-40.15,0,*6F
1485097274.51,8450,11.88,74194.0,-4.79,-40.03,-40.15,0,*64
1485097275.79,8451,11.88,74192.8,-4.77,-39.97,-39.97,0,*6C
1485097277.01,8452,11.88,74194.0,-4.79,-40.03,-40.21,0,*61
1485097278.23,8453,11.88,74192.0,-4.79,-39.97,-40.15,0,*64
1485097279.45,8454,11.88,74194.5,-4.79,-39.97,-40.15,0,*63
1485097280.7,8455,11.88,74190.8,-4.81,-39.97,-40.15,0,*65
1485097281.89,8456,11.88,74194.5,-4.79,-40.03,-40.15,0,*62
1485097283.12,8457,11.88,74194.0,-4.79,-39.97,-40.15,0,*60
1485097284.34,8458,11.88,74192.0,-4.79,-39.97,-40.15,0,*6F
1485097285.54,8459,11.88,74192.0,-4.79,-39.85,-40.15,0,*6D
1485097286.79,8460,11.88,74192.0,-4.81,-39.97,-40.15,0,*63
1485097288.0,8461,11.88,74190.0,-4.79,-39.97,-40.03,0,*62
1485097289.22,8462,11.88,74188.5,-4.79,-39.97,-40.03,0,*61
1485097290.44,8463,11.94,74194.0,-4.81,-40.03,-40.15,0,*63
1485097291.64,8464,11.88,74192.8,-4.79,-40.03,-40.15,0,*63
1485097292.88,8465,11.88,74192.8,-4.79,-39.97,-40.21,0,*66
1485097294.13,8466,11.88,74192.8,-4.81,-39.97,-40.15,0,*65
1485097295.33,8467,11.88,74194.5,-4.79,-40.03,-40.15,0,*60
1485097296.55,8468,11.88,74188.5,-4.81,-40.03,-40.15,0,*68
1485097297.83,8469,11.88,74194.0,-4.81,-39.97,-40.21,0,*6D
1485097299.07,8470,11.88,74194.5,-4.81,-39.97,-40.15,0,*62
1485097300.35,8471,11.88,74194.3,-4.81,-39.97,-40.21,0,*64
1485097301.57,8472,11.88,74192.0,-4.81,-40.03,-40.15,0,*63
1485097302.79,8473,11.88,74194.5,-4.81,-40.03,-40.15,0,*62
1485097304.02,8474,11.88,74190.3,-4.81,-39.85,-40.15,0,*65
1485097305.27,8475,11.88,74192.3,-4.81,-39.97,-40.15,0,*67
1485097306.52,8476,11.94,74192.0,-4.81,-39.97,-40.15,0,*64
1485097307.77,8477,11.88,74190.3,-4.81,-39.97,-40.15,0,*65
1485097309.04,8478,11.88,74192.5,-4.81,-39.97,-40.21,0,*6D
1485097310.26,8479,11.88,74192.8,-4.83,-40.03,-40.29,0,*65
1485097311.49,8480,11.94,74196.8,-4.83,-40.03,-40.29,0,*63
1485097312.71,8481,11.88,74192.3,-4.83,-40.03,-40.21,0,*6A
1485097313.94,8482,11.88,74190.3,-4.83,-40.03,-40.21,0,*69
1485097315.19,8483,11.88,74192.8,-4.83,-40.09,-40.29,0,*6A
1485097316.42,8484,11.88,74194.0,-4.83,-40.03,-40.21,0,*6F
1485097317.66,8485,11.88,74192.3,-4.81,-39.97,-40.15,0,*68
1485097318.92,8486,11.88,74194.8,-4.83,-40.09,-40.21,0,*67
1485097320.14,8487,11.88,74188.5,-4.83,-40.03,-40.21,0,*6C
1485097321.4,8488,11.88,74194.8,-4.83,-40.09,-40.29,0,*61
1485097322.62,8489,11.88,74196.3,-4.83,-40.03,-40.29,0,*6A
1485097323.88,8490,11.94,74198.5,-4.85,-39.91,-40.21,0,*69
1485097325.1,8491,11.88,74192.3,-4.83,-40.03,-40.29,0,*63
1485097326.33,8492,11.88,74194.3,-4.83,-40.03,-40.21,0,*68
1485097327.56,8493,11.88,74194.0,-4.83,-39.85,-40.09,0,*63
1485097328.82,8494,11.88,74192.8,-4.85,-39.91,-40.09,0,*67
1485097330.04,8495,11.88,74190.8,-4.83,-40.03,-40.09,0,*65
1485097331.28,8496,11.88,74192.0,-4.83,-39.91,-40.09,0,*63
1485097332.54,8497,11.88,74192.5,-4.85,-39.85,-40.09,0,*61
1485097333.8,8498,11.88,74194.0,-4.85,-39.91,-40.09,0,*6B
1485097335.03,8499,11.88,74194.0,-4.83,-39.91,-40.09,0,*6C
1485097336.24,8500,11.88,74192.3,-4.83,-39.85,-39.91,0,*67
1485097337.49,8501,11.94,74196.0,-4.85,-39.85,-40.09,0,*6F
1485097338.73,8502,11.88,74192.5,-4.83,-39.91,-40.09,0,*6F
1485097339.99,8503,11.88,74194.5,-4.85,-39.91,-40.09,0,*68
1485097341.25,8504,11.88,74194.8,-4.85,-39.91,-40.09,0,*6F
1485097342.48,8505,11.88,74194.3,-4.85,-39.85,-40.03,0,*61
1485097343.73,8506,11.88,74194.5,-4.85,-39.91,-40.21,0,*67
1485097344.96,8507,11.88,74196.3,-4.83,-40.03,-40.29,0,*6D
1485097346.22,8508,11.88,74194.3,-4.85,-39.91,-40.29,0,*61
1485097347.47,8509,11.88,74192.5,-4.85,-40.03,-40.21,0,*6D
1485097348.73,8510,11.94,74196.3,-4.85,-39.91,-40.09,0,*6A
1485097349.99,8511,11.88,74194.8,-4.85,-39.91,-40.09,0,*6B
1485097351.27,8512,11.88,74192.5,-4.85,-40.09,-40.29,0,*65
1485097352.49,8513,11.94,74198.0,-4.87,-40.09,-40.35,0,*6B
1485097353.75,8514,11.88,74196.0,-4.87,-40.09,-40.29,0,*61
1485097355.0,8515,11.88,74192.3,-4.87,-40.09,-40.29,0,*60
1485097356.26,8516,11.88,74194.0,-4.87,-40.09,-40.29,0,*63
1485097357.51,8517,11.88,74194.0,-4.87,-40.09,-40.29,0,*62
1485097358.74,8518,11.94,74196.0,-4.87,-40.09,-40.35,0,*60
1485097359.99,8519,11.88,74196.0,-4.87,-40.09,-40.29,0,*6C
1485097361.27,8520,11.88,74194.0,-4.89,-39.97,-40.29,0,*61
1485097362.5,8521,11.88,74194.3,-4.87,-39.91,-40.29,0,*68
1485097363.75,8522,11.88,74192.0,-4.89,-39.97,-40.35,0,*6E
1485097364.97,8523,11.88,74192.5,-4.87,-39.97,-40.35,0,*61
1485097366.24,8524,11.88,74194.3,-4.89,-39.97,-40.29,0,*65
1485097367.49,8525,11.88,74190.5,-4.87,-39.97,-40.29,0,*6A
1485097368.74,8526,11.88,74194.5,-4.87,-39.97,-40.29,0,*69
1485097369.98,8527,11.88,74192.8,-4.87,-39.97,-40.29,0,*68
1485097371.21,8528,11.88,74192.8,-4.87,-40.09,-40.15,0,*61
1485097372.46,8529,11.88,74194.0,-4.89,-39.97,-40.15,0,*67
1485097373.74,8530,11.88,74192.8,-4.89,-39.97,-40.29,0,*60
1485097374.96,8531,11.88,74192.3,-4.87,-39.97,-40.15,0,*60
1485097376.2,8532,11.88,74192.0,-4.87,-39.91,-40.09,0,*68
1485097377.45,8533,11.88,74194.5,-4.89,-39.91,-39.97,0,*6E
1485097378.7,8534,11.94,74194.5,-4.89,-39.97,-40.15,0,*6B
1485097379.96,8535,11.88,74190.5,-4.89,-39.91,-39.97,0,*68
1485097381.19,8536,11.88,74188.5,-4.87,-39.91,-39.97,0,*65
1485097382.45,8537,11.88,74190.3,-4.89,-39.91,-40.09,0,*63
1485097383.69,8538,11.88,74192.0,-4.89,-39.91,-40.15,0,*61
1485097384.95,8539,11.88,74194.0,-4.89,-39.91,-40.09,0,*6D
1485097386.24,8540,11.88,74190.8,-4.89,-39.79,-40.09,0,*65
1485097387.53,8541,11.88,74192.3,-4.89,-39.79,-40.09,0,*64
1485097388.78,8542,11.88,74190.5,-4.89,-39.79,-40.03,0,*6D
1485097390.04,8543,11.88,74192.5,-4.91,-39.79,-39.97,0,*66
1485097391.27,8544,11.88,74192.3,-4.91,-39.85,-39.97,0,*62
1485097392.5,8545,11.88,74188.8,-4.91,-39.97,-40.15,0,*64
1485097393.72,8546,11.88,74194.8,-4.91,-39.85,-39.97,0,*60
1485097394.98,8547,11.88,74190.5,-4.91,-39.79,-39.97,0,*62
1485097396.22,8548,11.88,74188.0,-4.91,-39.79,-40.03,0,*6E
1485097397.5,8549,11.88,74190.0,-4.89,-39.71,-39.97,0,*6D
1485097398.73,8550,11.88,74188.5,-4.91,-39.79,-40.03,0,*67
1485097399.93,8551,11.94,74194.0,-4.91,-39.85,-40.03,0,*65
1485097401.13,8552,11.88,74192.0,-4.91,-39.85,-40.03,0,*66
1485097402.34,8553,11.88,74190.5,-4.91,-39.85,-40.15,0,*60
1485097403.6,8554,11.88,74192.5,-4.91,-39.79,-39.97,0,*60
1485097404.8,8555,11.88,74192.0,-4.91,-39.65,-40.03,0,*6F
1485097406.0,8556,11.88,74188.5,-4.91,-39.85,-40.03,0,*62
1485097407.26,8557,11.88,74194.0,-4.91,-39.79,-39.97,0,*63
1485097408.46,8558,11.94,74194.8,-4.91,-39.85,-40.15,0,*6B
1485097409.72,8559,11.88,74192.8,-4.93,-39.85,-39.97,0,*6C
1485097410.95,8560,11.88,74190.8,-4.91,-39.79,-40.03,0,*64
1485097412.18,8561,11.94,74196.0,-4.91,-39.65,-39.97,0,*6B
1485097413.41,8562,11.88,74190.8,-4.91,-39.79,-40.03,0,*66
1485097414.64,8563,11.88,74192.8,-4.91,-39.85,-39.97,0,*67
1485097415.87,8564,11.94,74194.3,-4.91,-39.65,-39.97,0,*6E
1485097417.1,8565,11.88,74190.3,-4.93,-39.85,-40.15,0,*67
1485097418.33,8566,11.88,74194.3,-4.91,-39.97,-40.15,0,*65
1485097419.58,8567,11.94,74196.0,-4.91,-39.79,-39.97,0,*60
1485097420.84,8568,11.88,74194.0,-4.91,-39.79,-39.97,0,*6F
1485097422.05,8569,11.88,74192.0,-4.91,-39.85,-40.15,0,*69
1485097423.31,8570,11.88,74192.5,-4.93,-39.79,-40.15,0,*60
1485097424.52,8571,11.88,74194.5,-4.91,-39.85,-40.15,0,*60
1485097425.75,8572,11.88,74192.3,-4.91,-39.79,-40.03,0,*67
1485097427.01,8573,11.88,74192.3,-4.91,-39.79,-39.97,0,*65
1485097428.27,8574,11.88,74192.5,-4.93,-39.59,-39.85,0,*61
1485097429.5,8575,11.88,74190.0,-4.91,-39.65,-39.79,0,*6E
1485097430.73,8576,11.88,74194.3,-4.93,-39.65,-39.85,0,*6C
1485097431.97,8577,11.88,74192.3,-4.91,-39.97,-39.97,0,*61
1485097433.26,8578,11.88,74190.5,-4.93,-39.79,-39.97,0,*6C
1485097434.52,8579,11.88,74188.3,-4.91,-39.79,-39.97,0,*6F
1485097435.72,8580,11.88,74192.0,-4.91,-39.65,-39.85,0,*67
1485097436.95,8581,11.88,74192.8,-4.91,-39.65,-39.97,0,*65
1485097438.21,8582,11.88,74194.3,-4.93,-39.79,-40.03,0,*6A
1485097439.44,8583,11.88,74194.8,-4.91,-39.65,-39.97,0,*67
1485097440.64,8584,11.94,74194.0,-4.91,-39.85,-40.03,0,*6D
1485097441.92,8585,11.88,74188.8,-4.93,-39.79,-39.97,0,*6E
1485097443.18,8586,11.88,74192.5,-4.91,-39.79,-39.97,0,*6F
1485097444.44,8587,11.88,74192.3,-4.93,-39.65,-39.97,0,*61
1485097445.69,8588,11.88,74190.0,-4.93,-39.65,-39.97,0,*6E
1485097446.95,8589,11.88,74192.8,-4.93,-39.65,-39.79,0,*6F
1485097448.18,8590,11.88,74190.0,-4.91,-39.65,-39.97,0,*65
1485097449.41,8591,11.88,74192.3,-4.91,-39.65,-39.97,0,*64
1485097450.66,8592,11.88,74192.5,-4.93,-39.65,-39.97,0,*65
1485097451.92,8593,11.88,74192.0,-4.91,-39.79,-39.97,0,*6B
1485097453.18,8594,11.88,74192.0,-4.93,-39.65,-39.97,0,*63
1485097454.41,8595,11.88,74190.3,-4.91,-39.65,-39.97,0,*60
1485097455.66,8596,11.94,74192.0,-4.93,-39.65,-39.97,0,*61
1485097456.93,8597,11.88,74192.5,-4.93,-39.79,-40.15,0,*69
1485097458.13,8598,11.88,74192.0,-4.91,-39.85,-40.03,0,*60
1485097459.39,8599,11.88,74190.3,-4.93,-39.79,-40.03,0,*60
1485097460.62,8600,11.94,74194.3,-4.91,-39.79,-40.03,0,*61
1485097461.9,8601,11.94,74194.5,-4.93,-39.79,-39.97,0,*61
1485097463.16,8602,11.88,74188.0,-4.91,-39.79,-39.97,0,*60
1485097464.39,8603,11.94,74192.3,-4.93,-39.65,-40.03,0,*6D
1485097465.62,8604,11.88,74190.0,-4.93,-39.65,-39.85,0,*6A
1485097466.88,8605,11.88,74188.3,-4.93,-39.59,-39.85,0,*64
1485097468.11,8606,11.88,74190.8,-4.91,-39.65,-39.79,0,*69
1485097469.37,8607,11.94,74192.3,-4.93,-39.59,-39.85,0,*66
1485097470.6,8608,11.88,74190.3,-4.93,-39.65,-39.85,0,*66
1485097471.8,8609,11.88,74192.5,-4.91,-39.65,-39.85,0,*65
1485097473.06,8610,11.88,74194.5,-4.93,-39.79,-40.03,0,*62
1485097474.32,8611,11.88,74194.0,-4.93,-39.79,-39.85,0,*63
1485097475.57,8612,11.88,74190.8,-4.93,-39.59,-39.85,0,*62
1485097476.83,8613,11.88,74192.8,-4.93,-39.59,-39.85,0,*63
1485097478.06,8614,11.88,74190.8,-4.93,-39.65,-39.85,0,*6B
1485097479.26,8615,11.88,74194.3,-4.91,-39.47,-39.85,0,*68
1485097480.49,8616,11.88,74188.0,-4.93,-39.65,-39.85,0,*69
1485097481.72,8617,11.88,74192.8,-4.93,-39.65,-40.03,0,*68
1485097482.95,8618,11.88,74192.0,-4.91,-39.65,-39.97,0,*66
1485097484.21,8619,11.88,74190.3,-4.93,-39.79,-40.03,0,*6B
1485097485.44,8620,11.88,74192.0,-4.91,-39.79,-40.03,0,*63
1485097486.7,8621,11.88,74192.3,-4.93,-39.79,-39.85,0,*60
1485097487.96,8622,11.88,74194.5,-4.91,-39.79,-39.97,0,*62
1485097489.21,8623,11.88,74190.5,-4.93,-39.65,-39.97,0,*6C
1485097490.47,8624,11.88,74194.3,-4.93,-39.79,-40.03,0,*65
1485097491.73,8625,11.88,74190.0,-4.93,-39.79,-40.03,0,*64
1485097493.01,8626,11.88,74188.5,-4.93,-39.79,-39.97,0,*64
1485097494.3,8627,11.88,74190.5,-4.93,-39.79,-39.97,0,*65
1485097495.53,8628,11.88,74190.5,-4.93,-39.65,-39.85,0,*64
1485097496.79,8629,11.88,74194.8,-4.93,-39.79,-40.03,0,*68
1485097498.04,8630,11.88,74192.3,-4.93,-39.79,-40.03,0,*60
1485097499.27,8631,11.94,74194.8,-4.93,-39.85,-40.03,0,*62
1485097500.5,8632,11.88,74194.8,-4.93,-39.85,-40.03,0,*61
1485097501.73,8633,11.94,74192.8,-4.93,-39.85,-40.03,0,*60
1485097502.98,8634,11.88,74190.8,-4.93,-39.65,-39.97,0,*6A
1485097504.27,8635,11.88,74192.0,-4.93,-39.79,-39.97,0,*66
1485097505.53,8636,11.88,74188.0,-4.93,-39.79,-39.85,0,*66
1485097506.76,8637,11.88,74190.0,-4.93,-39.65,-39.85,0,*6A
1485097507.98,8638,11.88,74190.3,-4.95,-39.71,-39.85,0,*66
1485097509.21,8639,11.94,74194.0,-4.95,-39.71,-39.91,0,*62
1485097510.41,8640,11.88,74190.5,-4.95,-39.85,-40.03,0,*62
1485097511.61,8641,11.94,74194.8,-4.95,-39.85,-40.03,0,*63
1485097512.81,8642,11.94,74192.3,-4.95,-39.91,-40.03,0,*65
1485097514.01,8643,11.88,74190.3,-4.95,-39.85,-40.03,0,*61
1485097515.24,8644,11.88,74190.8,-4.95,-39.85,-40.09,0,*6C
1485097516.49,8645,11.88,74192.3,-4.93,-39.65,-39.97,0,*6C
1485097517.75,8646,11.88,74188.5,-4.95,-39.71,-40.09,0,*65
1485097519.01,8647,11.94,74192.8,-4.95,-39.71,-40.09,0,*64
1485097520.21,8648,11.94,74192.3,-4.95,-39.85,-40.03,0,*6A
1485097521.43,8649,11.94,74192.0,-4.95,-39.85,-40.09,0,*61
1485097522.66,8650,11.88,74192.0,-4.93,-39.85,-40.03,0,*65
1485097523.86,8651,11.94,74194.8,-4.95,-39.85,-40.03,0,*62
1485097525.09,8652,11.94,74192.5,-4.95,-39.85,-40.21,0,*61
1485097526.29,8653,11.88,74192.0,-4.95,-39.85,-40.03,0,*60
1485097527.52,8654,11.94,74194.3,-4.95,-39.85,-40.09,0,*6D
1485097528.75,8655,11.94,74194.0,-4.95,-39.85,-40.09,0,*6C
1485097529.95,8656,11.88,74192.8,-4.95,-39.85,-40.03,0,*65
1485097531.17,8657,11.88,74192.3,-4.95,-39.71,-40.03,0,*6F
1485097532.43,8658,11.88,74194.0,-4.95,-39.71,-40.09,0,*6A
1485097533.69,8659,11.88,74192.0,-4.97,-39.71,-39.91,0,*66
1485097534.94,8660,11.94,74194.0,-4.97,-39.71,-40.03,0,*69
1485097536.17,8661,11.88,74192.0,-4.95,-39.71,-40.03,0,*6A
1485097537.4,8662,11.88,74192.8,-4.95,-39.85,-40.09,0,*68
1485097538.63,8663,11.88,74192.0,-4.95,-39.91,-40.09,0,*6C
1485097539.83,8664,11.88,74192.0,-4.95,-39.85,-40.03,0,*64
1485097541.06,8665,11.94,74192.0,-4.95,-39.91,-40.09,0,*6A
1485097542.29,8666,11.88,74194.5,-4.97,-39.85,-40.03,0,*64
1485097543.55,8667,11.88,74194.5,-4.97,-39.85,-40.09,0,*6F
1485097544.78,8668,11.88,74192.0,-4.97,-39.85,-40.03,0,*6A
1485097546.01,8669,11.88,74192.0,-4.97,-39.85,-40.03,0,*6B
1485097547.26,8670,11.88,74192.5,-4.97,-39.85,-40.09,0,*69
1485097548.46,8671,11.88,74192.8,-4.95,-39.85,-40.03,0,*60
1485097549.72,8672,11.88,74188.8,-4.97,-39.91,-40.09,0,*6E
1485097550.98,8673,11.88,74192.5,-4.97,-39.91,-40.29,0,*6D
1485097552.24,8674,11.88,74190.8,-4.97,-39.85,-40.09,0,*6D
1485097553.5,8675,11.94,74194.0,-4.97,-39.85,-40.09,0,*6C
1485097554.73,8676,11.88,74194.0,-4.97,-39.85,-40.03,0,*65
1485097555.99,8677,11.88,74192.0,-4.97,-39.85,-40.09,0,*6E
1485097557.25,8678,11.88,74188.3,-4.97,-39.91,-40.09,0,*64
1485097558.46,8679,11.88,74190.8,-5.01,-39.91,-40.15,0,*66
1485097559.66,8680,11.88,74190.8,-5.01,-39.91,-40.15,0,*60
1485097560.88,8681,11.88,74192.3,-5.01,-39.97,-40.15,0,*67
1485097562.11,8682,11.88,74192.5,-5.03,-39.91,-40.15,0,*60
1485097563.36,8683,11.88,74192.5,-5.01,-40.09,-40.29,0,*63
1485097564.61,8684,11.88,74194.5,-5.01,-39.97,-40.09,0,*6F
1485097565.9,8685,11.88,74194.0,-5.03,-39.79,-40.09,0,*6C
1485097567.13,8686,11.88,74188.3,-5.01,-39.91,-40.09,0,*6B
1485097568.36,8687,11.94,74194.5,-5.01,-39.91,-40.09,0,*6A
1485097569.59,8688,11.88,74194.8,-5.01,-39.91,-40.09,0,*65
1485097570.81,8689,11.88,74192.8,-5.01,-39.91,-39.97,0,*6D
1485097572.07,8690,11.94,74194.8,-5.01,-39.79,-39.97,0,*63
1485097573.33,8691,11.88,74192.8,-5.01,-39.79,-39.97,0,*62
1485097574.61,8692,11.94,74198.8,-5.03,-39.79,-40.09,0,*6A
1485097575.82,8693,11.88,74194.5,-5.01,-39.91,-40.15,0,*62
1485097577.06,8694,11.88,74194.5,-5.01,-39.97,-40.29,0,*6C
1485097578.33,8695,11.88,74190.8,-5.03,-39.97,-40.29,0,*6F
1485097579.56,8696,11.88,74190.5,-5.03,-39.91,-40.15,0,*65
1485097580.81,8697,11.88,74192.3,-5.03,-39.97,-40.15,0,*62
1485097582.04,8698,11.88,74188.8,-5.03,-39.91,-40.15,0,*6B
1485097583.29,8699,11.94,74194.3,-5.01,-39.97,-40.09,0,*63
1485097584.49,8700,11.88,74192.0,-5.01,-39.91,-40.15,0,*69
1485097585.71,8701,11.94,74194.8,-5.01,-39.97,-40.15,0,*6E
1485097587.0,8702,11.94,74192.8,-5.03,-39.79,-40.09,0,*62
1485097588.25,8703,11.88,74194.3,-5.03,-39.91,-39.97,0,*6C
1485097589.53,8704,11.88,74192.0,-5.03,-39.71,-39.97,0,*65
1485097590.78,8705,11.94,74192.0,-5.03,-39.71,-39.91,0,*62
1485097592.06,8706,11.88,74190.3,-5.03,-39.71,-40.09,0,*6E
1485097593.35,8707,11.88,74190.0,-5.03,-39.79,-39.97,0,*6E
1485097594.63,8708,11.88,74192.0,-5.03,-39.71,-39.79,0,*69
1485097595.91,8709,11.88,74190.5,-5.03,-39.59,-39.79,0,*62
1485097597.11,8710,11.88,74188.5,-5.05,-39.85,-40.03,0,*6E
1485097598.38,8711,11.88,74190.8,-5.05,-39.79,-39.97,0,*6F
1485097599.61,8712,11.88,74192.0,-5.05,-39.79,-40.03,0,*6F
1485097600.82,8713,11.88,74192.5,-5.05,-39.85,-40.03,0,*6D
1485097602.02,8714,11.88,74192.0,-5.05,-39.85,-40.15,0,*6D
1485097603.26,8715,11.94,74194.5,-5.05,-39.79,-39.85,0,*68
1485097604.51,8716,11.88,74188.8,-5.03,-39.71,-39.91,0,*60
1485097605.77,8717,11.88,74192.0,-5.07,-39.79,-39.85,0,*68
1485097606.97,8718,11.88,74192.5,-5.05,-39.85,-40.03,0,*66
1485097608.2,8719,11.88,74192.5,-5.05,-39.85,-39.97,0,*64
1485097609.47,8720,11.88,74190.5,-5.05,-39.79,-39.97,0,*6D
1485097610.67,8721,11.88,74194.3,-5.05,-39.85,-40.03,0,*6C
1485097611.87,8722,11.88,74192.5,-5.05,-39.85,-40.03,0,*6F
1485097613.14,8723,11.88,74194.0,-5.05,-39.79,-39.97,0,*6E
1485097614.34,8724,11.88,74190.5,-5.05,-39.85,-39.85,0,*69
1485097615.57,8725,11.88,74190.0,-5.05,-39.85,-39.97,0,*6B
1485097616.8,8726,11.88,74190.5,-5.05,-39.85,-39.97,0,*68
1485097618.09,8727,11.88,74192.0,-5.07,-39.79,-39.97,0,*68
1485097619.35,8728,11.88,74194.5,-5.05,-39.79,-39.97,0,*65
1485097620.63,8729,11.88,74188.8,-5.07,-39.79,-39.97,0,*66
1485097621.89,8730,11.88,74194.5,-5.05,-39.79,-39.97,0,*6C
1485097623.1,8731,11.88,74188.8,-5.05,-39.85,-40.03,0,*6D
1485097624.35,8732,11.88,74192.0,-5.03,-39.91,-39.97,0,*6E
1485097625.61,8733,11.88,74194.5,-5.05,-39.79,-39.97,0,*6F
1485097626.85,8734,11.88,74192.0,-5.05,-39.79,-40.03,0,*6B
1485097628.05,8735,11.88,74194.5,-5.05,-39.85,-40.15,0,*6E
1485097629.26,8736,11.88,74194.0,-5.05,-39.85,-40.15,0,*6D
1485097630.47,8737,11.88,74192.5,-5.05,-39.85,-40.03,0,*6B
1485097631.74,8738,11.94,74194.3,-5.07,-39.97,-39.97,0,*66
1485097632.95,8739,11.88,74194.0,-5.05,-39.85,-40.15,0,*62
1485097634.15,8740,11.88,74194.3,-5.05,-39.85,-40.03,0,*6B
1485097635.4,8741,11.88,74194.0,-5.07,-39.97,-40.15,0,*6C
1485097636.63,8742,11.88,74194.8,-5.07,-39.85,-40.15,0,*6C
1485097637.87,8743,11.88,74194.3,-5.07,-39.97,-40.15,0,*6E
1485097639.13,8744,11.88,74194.5,-5.05,-39.97,-40.21,0,*6C
1485097640.4,8745,11.88,74192.5,-5.07,-39.97,-40.21,0,*6F
1485097641.64,8746,11.88,74194.0,-5.07,-39.97,-40.03,0,*6C
1485097642.87,8747,11.88,74194.0,-5.07,-39.85,-40.15,0,*69
1485097644.1,8748,11.94,74198.0,-5.05,-39.85,-40.21,0,*63
1485097645.35,8749,11.94,74196.0,-5.07,-39.85,-40.21,0,*60
1485097646.6,8750,11.88,74190.8,-5.07,-39.97,-40.15,0,*6C
1485097647.87,8751,11.88,74192.5,-5.07,-39.97,-40.21,0,*6A
1485097649.1,8752,11.88,74192.3,-5.09,-40.03,-40.09,0,*6E
1485097650.34,8753,11.88,74192.3,-5.09,-39.91,-40.09,0,*6A
1485097651.57,8754,11.94,74196.8,-5.09,-39.91,-40.09,0,*6D
1485097652.8,8755,11.88,74194.3,-5.09,-39.91,-40.21,0,*66
1485097654.03,8756,11.88,74192.0,-5.09,-39.91,-40.21,0,*65
1485097655.3,8757,11.88,74192.5,-5.07,-39.97,-40.21,0,*6C
1485097656.54,8758,11.88,74194.0,-5.09,-39.91,-40.21,0,*6B
1485097657.77,8759,11.88,74194.0,-5.09,-39.91,-40.29,0,*62
1485097659.0,8760,11.88,74192.5,-5.09,-39.91,-40.21,0,*60
1485097660.23,8761,11.88,74194.3,-5.09,-39.91,-40.09,0,*6B
1485097661.46,8762,11.88,74192.0,-5.09,-39.91,-40.21,0,*62
1485097662.7,8763,11.88,74188.8,-5.09,-39.91,-40.09,0,*69
1485097663.9,8764,11.88,74194.5,-5.09,-39.91,-40.03,0,*64
1485097665.17,8765,11.88,74194.8,-5.11,-39.97,-40.29,0,*62
1485097666.42,8766,11.88,74194.5,-5.11,-40.09,-40.35,0,*65
1485097667.65,8767,11.88,74192.8,-5.09,-39.71,-40.03,0,*69
1485097668.92,8768,11.88,74194.8,-5.11,-39.97,-40.29,0,*6F
1485097670.17,8769,11.88,74194.0,-5.11,-40.09,-40.35,0,*6A
1485097671.4,8770,11.88,74192.5,-5.09,-40.03,-40.21,0,*64
1485097672.62,8771,11.88,74194.0,-5.09,-40.03,-40.21,0,*65
1485097673.87,8772,11.88,74192.8,-5.11,-39.97,-40.35,0,*69
1485097675.11,8773,11.88,74194.8,-5.11,-39.97,-40.35,0,*68
1485097676.34,8774,11.88,74192.3,-5.09,-39.91,-40.21,0,*65
1485097677.55,8775,11.88,74192.5,-5.09,-39.91,-40.15,0,*63
1485097678.78,8776,11.88,74192.0,-5.11,-39.91,-40.15,0,*69
1485097680.04,8777,11.88,74192.5,-5.11,-39.91,-40.09,0,*65
1485097681.27,8778,11.88,74188.8,-5.11,-39.91,-40.15,0,*67
1485097682.5,8779,11.88,74194.3,-5.09,-39.91,-40.09,0,*62
1485097683.76,8780,11.88,74190.8,-5.11,-39.91,-40.09,0,*6D
1485097685.01,8781,11.88,74192.5,-5.11,-39.97,-40.15,0,*67
1485097686.24,8782,11.88,74192.5,-5.11,-39.91,-40.15,0,*62
1485097687.5,8783,11.88,74194.0,-5.11,-39.91,-40.09,0,*6E
1485097688.72,8784,11.88,74192.8,-5.13,-39.97,-40.15,0,*60
1485097689.94,8785,11.88,74190.8,-5.13,-39.97,-40.15,0,*61
1485097691.17,8786,11.88,74192.0,-5.17,-40.03,-40.21,0,*62
1485097692.42,8787,11.88,74190.0,-5.13,-39.97,-40.29,0,*6C
1485097693.65,8788,11.88,74192.0,-5.13,-39.91,-39.97,0,*6E
1485097694.91,8789,11.88,74192.3,-5.13,-39.79,-39.97,0,*69
1485097696.14,8790,11.88,74194.3,-5.13,-39.91,-40.09,0,*6E
1485097697.4,8791,11.88,74194.8,-5.13,-39.79,-39.97,0,*60
1485097698.63,8792,11.88,74192.3,-5.13,-39.85,-39.97,0,*60
1485097699.87,8793,11.88,74192.3,-5.13,-39.79,-40.15,0,*66
1485097701.13,8794,11.88,74192.3,-5.13,-39.59,-39.79,0,*67
1485097702.39,8795,11.88,74192.8,-5.13,-39.79,-40.09,0,*6D
1485097703.62,8796,11.88,74192.5,-5.13,-39.71,-39.91,0,*69
1485097704.83,8797,11.88,74192.5,-5.17,-39.85,-40.03,0,*62